Home   Weather   Stuhr   Past weeks

Flag for Germany Past Weather in Stuhr, Lower Saxony, Germany — Yesterday and Last 2 Weeks

Now
70 °F

Partly sunny.


Feels Like: 70 °F
Forecast: 58 / 68 °F
Wind: 15 mph from West

Location: Bremen Airport

Current Time: Sep 28, 2016 at 7:19:26 PM

Latest Report: Sep 28, 2016 at 6:50 PM


Visibility: N/A

Pressure: 30.12 "Hg

Humidity: 50%

Dew Point: 50 °F

Location of StuhrLocation

Past Weather in Stuhr — Graph

°F

Stuhr Temperature Yesterday

Maximum temperature yesterday: 72 °F (at 3:20 PM)
Minimum temperature yesterday: 46 °F (at 5:20 AM)
Average temperature yesterday: 58 °F

High & Low Weather Summary for the Past Weeks

 TemperatureHumidityPressure
High86 °F (Sep 13, 6:20 PM)100% (Sep 17, 12:50 AM)30.30 "Hg (Sep 17, 12:50 AM)
Low45 °F (Sep 21, 6:50 AM)32% (Sep 15, 4:50 PM)29.86 "Hg (Sep 16, 2:20 AM)
Average62 °F73%30.09 "Hg
* Reported Sep 13 6:20 PM — Sep 28 6:20 PM, Stuhr, Weather by CustomWeather, © 2016

Note: Actual official high and low records may vary slightly from our data, if they occured in-between our weather recording intervals... More about our weather records

Advertising

Stuhr Weather History for the Previous 24 Hours

Scroll right to see more
 ConditionsComfort  
Time TempWeatherWind HumidityBarometerVisibility
6:20 PM
Wed, Sep 28
70 °FBroken clouds.16 mph46%30.12 "HgN/A
5:50 PM70 °FBroken clouds.17 mph46%30.09 "HgN/A
5:20 PM72 °FPartly sunny.20 mph44%30.09 "HgN/A
4:50 PM72 °FPartly sunny.20 mph44%30.12 "HgN/A
4:20 PM72 °FPartly sunny.20 mph47%30.09 "HgN/A
3:50 PM73 °FPartly sunny.23 mph44%30.09 "HgN/A
3:20 PM73 °FBroken clouds.21 mph50%30.09 "HgN/A
2:50 PM72 °FPartly sunny.18 mph53%30.12 "HgN/A
2:20 PM72 °FPartly sunny.20 mph50%30.12 "HgN/A
1:50 PM70 °FPartly sunny.17 mph50%30.12 "HgN/A
1:20 PM70 °FPartly sunny.17 mph57%30.12 "HgN/A
12:50 PM70 °FPartly sunny.17 mph57%30.12 "HgN/A
12:20 PM68 °FPartly sunny.20 mph64%30.12 "HgN/A
11:50 AM66 °FPartly sunny.21 mph68%30.12 "HgN/A
11:20 AM68 °FPartly sunny.23 mph69%30.12 "HgN/A
10:50 AM66 °FPartly sunny.22 mph73%30.12 "HgN/A
10:20 AM64 °FPartly sunny.20 mph73%30.12 "HgN/A
9:50 AM64 °FPartly sunny.17 mph78%30.12 "HgN/A
9:20 AM63 °FPartly sunny.16 mph77%30.12 "HgN/A
8:50 AM63 °FPartly sunny.15 mph77%30.12 "HgN/A
8:20 AM61 °FScattered clouds.12 mph77%30.12 "HgN/A
7:50 AM61 °FScattered clouds.12 mph72%30.12 "HgN/A
7:20 AM61 °FPassing clouds.13 mph68%30.12 "HgN/A
6:50 AM61 °FPassing clouds.12 mph68%30.12 "HgN/A
6:20 AM61 °FPassing clouds.9 mph63%30.15 "HgN/A
5:50 AM61 °FPassing clouds.9 mph63%30.12 "HgN/A
5:20 AM61 °FPassing clouds.10 mph63%30.12 "HgN/A
4:50 AM61 °FPassing clouds.12 mph63%30.15 "HgN/A
4:20 AM61 °FPassing clouds.10 mph63%30.15 "HgN/A
3:50 AM61 °FPassing clouds.10 mph63%30.18 "HgN/A
3:20 AM59 °FPassing clouds.8 mph72%30.18 "HgN/A
2:50 AM55 °FClear.7 mph82%30.18 "Hg10 mi
2:20 AM55 °FClear.8 mph82%30.18 "Hg10 mi
1:50 AM55 °FClear.7 mph77%30.21 "Hg10 mi
1:20 AM57 °FClear.6 mph77%30.21 "Hg10 mi
12:50 AM54 °FClear.5 mph82%30.21 "Hg10 mi
12:20 AM55 °FClear.6 mph77%30.21 "Hg10 mi
11:50 PM
Tue, Sep 27
55 °FClear.6 mph77%30.24 "Hg10 mi
11:20 PM55 °FClear.5 mph77%30.24 "Hg10 mi
10:50 PM57 °FClear.6 mph72%30.24 "Hg10 mi
10:20 PM57 °FClear.5 mph72%30.24 "Hg10 mi
9:50 PM57 °FClear.6 mph72%30.24 "Hg10 mi
9:20 PM57 °FClear.5 mph72%30.27 "Hg10 mi
8:50 PM59 °FClear.6 mph68%30.24 "Hg10 mi
8:20 PM61 °FClear.6 mph63%30.24 "Hg10 mi
7:50 PM61 °FClear.5 mph63%30.27 "Hg10 mi
7:20 PM64 °FClear.6 mph56%30.27 "Hg10 mi
Weather by CustomWeather, © 2016

See weather overviewHow to use our weather pages